Flag for U.S.A. Weather past 2 weeks in Plano, Texas, U.S.A.

Now
71 °F

Mostly cloudy.


Feels Like: 65 °F
Forecast: 72 / 82 °F
Wind: 6 mph from Southeast

Location: McKinney Municipal Airport

Current Time: Jul 31, 2014 at 7:21:52 AM

Latest Report: Jul 31, 2014 at 5:53 AM


Visibility: 10 mi

Pressure: 29.92 "Hg

Humidity: 96%

Dew point: 70 °F

Location of PlanoLocation

Historic Weather in Plano — Graph

°F

Plano temperature yesterday

Maximum temperature yesterday: 84 °F (at 5:53 PM)
Minimum temperature yesterday: 71 °F (at 2:53 AM)
Average temperature yesterday: 77 °F

Past Weeks' High & Low Weather Summary

 TemperatureHumidityPressure
High101 °F (Jul 27, 4:53 PM)100% (Jul 17, 8:57 AM)30.15 "Hg (Jul 17, 8:57 AM)
Low63 °F (Jul 18, 5:53 AM)32% (Jul 27, 3:53 PM)29.88 "Hg (Jul 16, 7:53 PM)
Average79 °F72%30.00 "Hg
* Reported Jul 16 5:53 AM — Jul 31 5:53 AM, Plano, Weather by CustomWeather, © 2014

Note: Actual official high and low records may vary slightly from our data, if they occured in-between our weather recording intervals... More about our weather records

Advertising

Plano weather history for previous 24 hours

 ConditionsComfort  
Time TempWeatherWind HumidityBarometerVisibility
5:53 AM
Jul 31
71 °FMostly cloudy.6 mph96%29.92 "Hg10 mi
5:00 AM71 °FLight rain. Partly cloudy.6 mph96%29.94 "Hg10 mi
3:53 AM71 °FStrong thunderstorms. Fog.6 mph96%29.97 "Hg2 mi
2:53 AM71 °FLight rain. Passing clouds.6 mph96%29.93 "Hg10 mi
1:53 AM72 °FThundershowers. Passing clouds.5 mph97%29.97 "Hg10 mi
1:03 AM73 °FHeavy rain. Fog.12 mph94%30.01 "Hg2 mi
12:53 AM72 °FStrong thunderstorms. Fog.9 mph97%29.96 "Hg2 mi
11:53 PM
Jul 30
77 °FPassing clouds.7 mph85%29.93 "Hg10 mi
10:53 PM78 °FClear.12 mph82%29.90 "Hg10 mi
9:53 PM80 °FClear.9 mph71%29.92 "Hg10 mi
8:53 PM81 °FSunny.10 mph69%29.92 "Hg10 mi
7:53 PM83 °FPassing clouds.10 mph65%29.90 "Hg10 mi
6:53 PM84 °FSunny.10 mph63%29.90 "Hg10 mi
5:53 PM84 °FSunny.13 mph65%29.92 "Hg10 mi
4:53 PM83 °FSunny.10 mph70%29.94 "Hg10 mi
3:53 PM79 °FBroken clouds.8 mph79%29.98 "Hg10 mi
2:53 PM79 °FSunny.7 mph77%30.00 "Hg10 mi
1:53 PM78 °FPassing clouds.9 mph79%30.03 "Hg10 mi
12:53 PM77 °FPartly sunny.7 mph88%30.04 "Hg10 mi
11:53 AM74 °FOvercast.6 mph94%30.06 "Hg10 mi
10:53 AM74 °FLight rain. More clouds than sun.7 mph91%30.07 "Hg9 mi
9:53 AM73 °FOvercast.7 mph94%30.07 "Hg10 mi
8:53 AM72 °FLight rain. Fog.3 mph93%30.08 "Hg6 mi
7:53 AM72 °FLight rain. Overcast.5 mph93%30.07 "Hg7 mi
Weather by CustomWeather, © 2014

See weather overviewHow to use our weather pages